Location: Unspecified
(41.5000°N, 0.0000°E)
Time: 05:43:55
(UTC+00:00)

Vanguard 3 - Pass Details

Date: 18 June 2019
Orbit: 507 x 3264 km, 33.4° (Epoch: 17 July)

Event Time Altitude Azimuth Distance (km) Brightness Sun altitude
Rises 17:04:29 0° 264° (W) 3,260 11.5 25.6°
Reaches altitude 10° 17:08:02 10° 243° (WSW) 2,011 10.1 24.9°
Maximum altitude 17:10:43 16° 204° (SSW) 1,488 8.8 24.4°
Drops below altitude 10° 17:13:06 10° 164° (SSE) 1,735 8.7 24.0°
Sets 17:15:49 0° 140° (SE) 2,590 9.3 23.5°
